Simultaneous Nadir Overpasses (SNOs) Predictions

Prediction of SNOs near US between AQUA and NPP Satellite Orbit:

Table of predicted SNOs near US for the next 10.0 days since TLE Epoch: 4/8/2016
Index Date (AQUA) Time (AQUA) AQUA Lat,Lon Date (NPP) Time (NPP) NPP Lat,Lon Distance(km) Time Diff (sec)
1 04/08/2016 21:31:47 36.13,-125.00 04/08/2016 21:30:21 35.67,-127.31 214.87 86
2 04/11/2016 09:25:02 21.69,-114.03 04/11/2016 09:17:10 21.73,-114.25 22.90 472
3 04/14/2016 06:31:10 46.91, -65.03 04/14/2016 06:31:17 47.24, -66.78 137.83 7
4 04/14/2016 08:09:13 49.88, -88.56 04/14/2016 08:11:53 50.34, -90.82 169.37 160
5 04/14/2016 09:48:06 49.89,-113.28 04/14/2016 09:53:21 50.45,-116.15 213.83 315
6 04/16/2016 19:07:23 49.96, -92.72 04/16/2016 19:02:10 49.67, -94.34 120.89 313
7 04/16/2016 20:46:16 49.96,-117.44 04/16/2016 20:43:38 49.56,-119.67 166.17 158




NCC Satellite Simultaneous Nadir Overpasses (SNOs) Prediction Service
